Theta_e
346 340 340 339 322 315 311 313 320 318 319 325 326 324 321 323 322 316 338 337 340 346 347 349 353 352 351 349 349 349 349 349 349 348 341 337 336 337 336 337 337 337 338 339 339 337 337 337 338
342 343 341 330 317 308 311 319 316 320 324 327 327 325 325 321 330 331 331 337 340 348 351 349 354 352 350 349 349 347 346 345 345 344 339 336 335 335 336 335 335 337 338 337 338 337 337 338 337
342 344 331 324 314 310 310 318 320 323 326 326 324 328 329 325 333 333 338 340 340 351 352 353 354 352 351 350 346 342 340 339 339 340 339 337 336 338 337 334 334 336 337 337 337 337 337 337 337
340 337 332 318 311 317 317 320 324 324 327 327 326 325 330 336 336 338 340 339 341 349 350 354 354 352 350 346 341 339 338 339 340 338 336 336 338 336 333 333 335 336 336 336 336 337 336 336 335
341 331 316 314 314 319 322 324 324 321 323 323 326 326 328 336 340 341 340 339 344 350 348 350 354 352 349 343 340 338 336 336 339 341 341 339 337 336 336 336 336 335 336 335 335 334 335 334 334
328 328 314 309 313 318 321 324 323 322 323 323 324 326 329 338 338 340 340 338 339 346 348 349 354 352 348 342 339 337 335 334 334 334 334 334 335 334 334 333 335 334 333 333 333 333 333 333 334
324 320 314 313 313 316 319 325 321 322 320 321 326 324 332 334 339 339 340 338 336 331 347 349 348 347 345 341 339 337 334 332 330 328 328 329 332 333 331 333 331 330 330 331 331 331 330 330 331
326 321 314 315 313 313 322 323 324 324 322 328 330 324 326 336 338 338 336 333 327 324 326 347 347 343 338 336 339 337 335 332 329 328 329 330 332 335 333 334 328 327 328 329 330 330 330 330 331
331 316 312 314 315 318 325 322 326 329 326 325 326 326 331 338 337 334 332 328 326 325 328 330 344 343 339 335 336 337 336 334 332 333 337 338 331 334 332 330 328 328 331 330 332 332 332 333 333
322 314 314 320 322 320 322 323 325 326 325 326 326 329 332 332 332 331 328 326 328 324 324 327 335 336 339 337 336 337 335 335 337 334 336 331 334 333 329 333 332 332 333 334 335 336 338 333 324
323 316 319 321 324 325 323 325 328 325 322 326 325 327 329 330 331 329 328 324 322 322 327 329 338 344 342 337 340 337 338 338 337 337 338 336 332 331 328 328 330 331 332 325 327 327 324 324 324
318 322 323 322 324 324 323 326 324 326 327 331 330 330 330 329 329 329 325 324 324 324 328 327 335 344 346 343 341 340 336 336 334 336 335 334 331 331 331 329 329 328 326 328 328 325 327 326 327
320 324 325 326 326 325 327 324 325 326 332 334 333 330 329 329 329 329 328 326 329 327 328 327 338 345 345 346 342 341 339 334 337 336 334 333 333 332 333 332 329 328 328 326 325 325 326 326 325
323 320 320 325 326 326 324 324 327 329 333 333 332 330 329 329 329 328 328 327 334 332 332 331 333 342 339 346 343 341 338 336 338 335 331 334 335 335 332 333 331 329 328 328 326 325 326 326 326
324 316 320 322 323 323 324 316 320 331 332 331 331 331 330 329 329 330 331 334 334 335 337 336 336 338 343 341 340 340 337 332 333 337 337 335 335 335 335 333 330 329 329 328 327 325 325 325 324
319 320 310 321 322 325 326 313 324 333 331 329 331 331 330 330 330 332 335 338 340 335 339 339 331 331 331 333 337 332 331 339 339 339 337 334 334 335 333 333 331 331 331 329 326 325 324 324 323
317 310 312 316 322 323 320 317 322 332 329 329 330 332 332 332 334 338 336 337 339 339 337 339 339 334 332 337 333 334 339 334 337 339 337 335 334 332 334 332 333 333 331 328 326 325 326 323 322
311 311 312 311 319 319 318 320 325 328 328 327 328 330 331 332 333 339 338 338 339 338 339 336 338 338 338 341 340 341 338 337 337 339 337 336 335 334 334 332 334 332 330 328 328 328 326 325 323
316 313 312 316 320 318 317 318 320 325 327 327 328 328 329 329 334 340 339 340 340 337 338 336 337 338 338 335 332 334 332 334 338 338 337 336 335 334 336 334 334 332 329 329 328 325 323 322 326
314 313 312 316 319 318 318 314 317 322 322 328 327 328 328 329 332 335 340 341 339 336 338 338 338 336 336 334 336 339 337 336 339 337 338 338 336 336 335 334 332 333 329 328 329 328 324 323 325
315 313 311 313 317 318 318 314 316 319 321 323 329 330 328 328 328 329 332 344 339 336 338 338 339 336 338 340 341 339 339 339 335 336 339 337 337 334 335 334 331 332 332 327 329 328 325 319 322
310 317 316 314 313 305 316 305 314 315 316 319 325 326 326 328 329 331 334 339 340 337 338 338 340 339 337 343 342 344 336 333 337 337 336 337 336 335 334 334 333 332 330 330 329 328 327 325 319
312 319 316 316 313 309 312 309 311 317 313 316 324 327 327 328 329 332 336 341 340 338 338 338 341 342 342 342 342 341 337 341 340 338 339 338 340 336 333 333 333 333 332 331 331 330 328 327 323
319 315 317 315 312 304 310 309 309 313 317 320 325 327 327 327 328 333 337 342 341 339 339 339 341 342 343 342 343 343 341 339 337 337 335 335 336 334 337 333 334 335 334 332 332 332 330 329 328
316 313 305 302 303 302 312 309 310 316 320 322 325 326 327 327 328 329 332 336 339 338 339 336 341 342 343 342 342 342 342 343 340 339 337 334 334 336 336 336 336 334 335 334 333 332 331 329 327
312 314 306 298 300 303 311 307 309 318 319 319 328 329 329 327 328 330 332 336 337 337 338 338 341 341 343 342 342 344 343 337 337 339 339 335 333 335 336 336 337 336 336 335 334 332 331 331 329
312 309 316 310 311 305 307 311 316 318 319 324 326 327 326 327 327 329 333 334 338 339 340 340 340 339 342 342 344 344 343 342 340 343 343 337 340 335 337 337 336 336 336 336 334 333 330 331 330
314 318 308 308 300 298 304 308 308 316 319 321 324 324 325 326 326 329 334 336 339 340 342 341 338 339 341 339 339 341 343 342 341 342 341 341 341 340 339 338 337 337 336 334 330 329 332 329 329
312 310 314 310 309 301 300 304 317 316 322 322 323 325 325 324 326 329 330 334 337 339 339 339 337 336 337 341 338 342 341 341 342 342 340 340 342 340 338 337 335 331 330 330 333 333 330 329 329
317 312 316 307 307 308 307 303 319 319 319 325 325 326 326 326 326 327 331 333 336 336 339 340 343 338 340 338 345 344 340 343 344 344 341 342 341 341 338 332 332 331 330 328 326 324 325 324 323
Wind_Speed
8 10 9 9 5 6 6 13 14 19 16 14 9 11 15 17 11 7 9 7 12 19 16 14 11 9 7 6 6 7 7 7 7 7 7 6 7 8 9 10 11 11 11 12 11 10 10 10 10
8 14 11 4 6 8 9 15 16 14 8 10 5 12 14 14 15 13 10 6 11 20 16 15 14 11 7 6 8 8 8 7 6 5 5 5 5 6 8 9 11 10 11 11 11 10 11 11 10
10 15 10 9 4 12 3 11 12 10 8 5 6 12 13 8 13 11 10 7 9 16 16 15 15 13 8 9 8 8 7 7 6 3 2 3 4 5 6 5 8 8 11 11 11 11 11 12 12
7 8 7 9 18 13 12 9 4 11 8 12 2 15 11 8 13 12 7 1 10 18 16 16 15 12 11 9 8 7 7 7 8 3 1 2 5 5 4 4 6 8 10 11 11 11 11 11 12
11 6 4 5 13 8 12 11 8 7 5 14 4 18 14 8 13 13 6 3 17 18 16 15 17 15 14 11 8 8 8 8 8 9 8 6 6 7 7 8 8 9 9 10 10 10 10 11 11
7 5 7 12 11 5 9 5 4 12 8 8 6 14 13 11 11 11 10 7 4 17 17 15 17 17 14 13 10 8 7 6 6 6 5 5 3 2 2 5 7 8 8 9 9 10 11 12 13
17 9 13 12 11 12 10 4 12 8 14 12 3 11 9 11 11 10 9 9 6 7 19 15 15 15 15 13 11 10 6 5 3 1 2 3 5 4 3 4 2 4 5 6 8 10 10 11 13
8 5 13 10 9 11 3 7 15 10 10 9 5 6 6 15 8 9 9 10 4 8 6 17 14 14 12 11 12 10 8 5 3 3 6 7 9 9 6 8 4 1 5 6 8 11 11 11 12
8 11 9 7 13 12 7 13 12 1 14 10 7 12 10 12 6 9 8 11 8 8 4 3 15 16 15 13 10 11 9 8 6 6 10 11 6 4 2 3 4 5 8 7 10 13 15 15 15
7 10 8 5 10 11 5 11 10 8 9 11 11 13 10 9 7 6 4 11 8 4 6 7 6 6 15 12 13 11 9 5 3 5 6 5 5 2 5 3 6 7 11 12 13 13 14 11 5
14 8 14 5 8 6 9 9 2 3 10 9 6 15 11 9 5 8 8 5 8 9 4 4 4 2 5 8 3 3 3 2 4 6 4 3 5 4 5 3 2 3 6 3 5 5 4 6 5
1 8 6 6 9 5 5 3 1 1 12 8 8 14 12 10 10 6 10 10 8 10 5 6 9 2 7 5 2 4 4 1 4 5 5 5 3 4 3 3 5 4 3 5 4 3 5 6 6
14 12 6 6 5 2 5 6 3 6 10 12 7 10 11 9 12 7 3 9 11 11 7 8 6 5 6 1 3 3 1 3 2 5 5 3 4 4 4 3 4 4 4 4 4 4 4 5 4
26 26 24 15 4 8 4 7 9 10 8 13 7 9 10 10 8 12 9 9 7 9 5 9 8 4 5 2 3 1 2 4 3 5 4 4 3 3 5 2 3 4 4 4 4 5 4 5 4
19 11 22 25 5 7 14 9 11 11 5 10 9 8 8 10 12 10 11 9 11 7 8 6 9 7 5 5 1 1 2 3 4 4 5 3 3 1 5 2 5 4 5 4 5 5 5 5 6
4 13 11 15 2 6 13 16 24 3 7 7 10 8 9 8 10 13 10 9 11 10 8 6 8 7 5 6 2 2 3 3 1 3 3 3 1 5 5 2 4 4 5 4 4 5 4 5 5
6 11 18 11 1 6 5 9 21 10 7 7 9 8 7 9 8 7 12 12 12 11 10 3 6 6 4 4 2 2 2 2 3 2 3 5 3 3 2 4 3 3 3 4 5 5 5 5 4
21 18 9 11 21 11 5 18 19 13 10 9 3 6 6 10 11 12 11 13 15 15 12 9 4 5 5 2 1 2 2 4 5 2 3 5 2 2 4 4 1 1 3 3 2 5 6 5 3
15 3 12 16 11 11 15 21 27 4 13 8 7 6 6 0 2 10 13 12 17 16 14 11 7 5 3 3 3 4 5 6 3 4 4 2 3 3 1 3 4 5 4 1 4 4 7 6 2
10 18 7 10 12 4 24 19 14 14 21 7 9 4 7 9 8 4 5 13 19 17 14 11 9 6 4 4 4 3 4 3 3 3 3 2 1 3 3 2 3 3 4 5 2 3 4 4 3
4 13 14 21 21 31 11 10 13 19 19 31 10 7 12 10 12 11 10 6 18 17 14 11 8 8 6 6 1 2 3 2 4 4 2 4 5 1 1 1 1 1 4 3 2 2 5 4 8
14 10 16 16 12 5 18 2 5 14 17 24 13 12 9 11 12 11 11 8 17 16 14 12 9 8 6 5 5 0 3 2 1 2 5 2 0 1 2 4 2 0 1 4 4 3 2 5 5
14 22 16 16 3 3 13 7 4 7 12 21 15 12 9 12 11 12 11 14 16 15 13 10 10 8 6 6 6 3 5 1 2 2 3 5 1 3 5 1 1 2 3 3 3 3 4 3 5
8 14 14 6 3 3 16 8 4 8 8 8 16 12 7 11 12 12 9 10 11 12 11 9 10 8 7 7 5 4 4 3 3 3 4 3 3 7 5 3 1 3 4 5 5 5 6 5 5
3 5 8 6 5 3 15 16 10 10 24 9 15 10 9 10 11 8 10 8 8 9 10 10 11 10 8 8 6 6 4 2 3 2 2 2 3 3 4 2 2 4 4 5 5 5 6 5 5
14 7 3 6 12 16 10 9 7 3 15 33 15 12 8 9 9 8 8 9 10 10 9 10 11 8 9 8 7 6 5 4 5 5 2 4 3 2 4 2 5 5 6 6 5 4 5 6 5
7 9 3 8 18 4 10 10 5 7 13 10 12 12 7 5 7 8 11 8 9 8 8 7 11 9 10 10 7 5 4 4 3 2 0 4 1 4 4 3 4 5 6 7 6 4 5 5 6
12 8 11 7 7 14 7 16 11 10 10 10 11 11 8 4 10 6 10 6 3 8 8 8 9 10 9 11 9 8 7 6 5 4 5 5 5 3 4 5 6 7 7 7 5 3 6 7 5
9 7 5 2 4 4 9 6 11 8 8 10 9 8 11 9 10 9 10 7 1 6 12 9 4 6 3 10 9 8 9 7 6 5 5 4 4 4 5 7 6 6 5 2 2 4 7 7 6
10 2 12 4 3 10 10 4 10 12 23 8 11 11 7 5 8 8 9 5 4 1 7 9 5 5 3 8 5 6 6 5 3 2 3 4 5 5 5 6 3 3 7 8 8 8 9 7 6
Wind_Direction
228 227 230 251 321 141 274 88 89 77 71 62 54 48 71 49 42 93 90 88 102 117 116 115 115 103 87 72 56 48 48 41 33 77 76 72 51 39 32 26 21 16 15 19 19 22 17 10 2
267 259 234 15 325 17 348 51 75 67 96 140 105 81 79 71 96 107 106 122 80 113 125 129 128 110 96 78 72 65 56 51 48 71 90 74 51 31 20 16 12 12 18 11 9 8 3 357 353
261 260 270 131 228 138 252 87 87 111 95 2 109 69 69 103 98 114 112 152 123 118 112 120 117 112 99 89 81 66 49 33 20 24 70 68 40 11 0 8 7 14 6 2 358 356 354 349 345
264 238 269 261 184 59 79 74 13 107 104 93 328 104 81 35 86 108 112 263 125 112 110 111 113 113 111 105 89 66 46 40 28 3 110 59 17 12 14 30 25 11 359 351 351 355 350 347 342
239 95 302 139 72 41 62 49 4 89 95 42 27 109 108 92 95 97 100 148 115 110 118 125 129 130 130 118 92 65 50 47 42 38 43 38 29 29 39 34 19 3 4 354 350 346 342 337 333
213 218 244 68 75 90 76 55 231 46 91 82 64 108 92 117 153 151 150 80 41 125 125 138 141 138 138 130 115 94 75 63 52 39 29 20 24 24 32 33 30 7 1 351 344 336 329 323 317
264 256 34 114 115 60 57 355 35 83 42 53 88 96 116 166 120 114 132 120 100 59 132 142 141 141 143 133 129 128 118 108 99 349 289 274 264 241 200 104 53 10 343 328 319 314 305 302 295
316 320 129 59 83 92 157 79 89 51 86 102 302 105 172 117 130 136 113 94 90 76 21 145 147 152 156 153 152 146 150 164 190 234 257 236 248 241 229 161 145 296 289 289 293 299 299 293 290
231 262 56 96 116 118 207 114 105 144 110 66 69 75 101 113 166 141 143 128 71 85 55 35 154 160 160 142 167 161 177 177 210 234 293 266 222 177 164 162 161 231 266 274 277 284 287 290 280
209 74 49 37 42 98 121 78 109 186 159 134 150 114 114 138 160 146 174 111 108 138 118 23 5 113 155 156 165 181 180 140 83 56 320 10 315 49 289 323 204 235 264 273 260 269 276 322 341
335 71 132 120 19 356 96 126 120 279 79 81 89 122 133 145 164 155 175 81 122 104 106 150 78 6 20 60 65 90 87 112 142 102 340 22 322 9 353 27 187 254 194 17 335 327 22 331 343
204 94 0 86 147 269 354 36 176 7 100 82 94 120 139 160 162 176 156 152 138 116 130 150 95 88 43 11 116 133 94 358 81 94 37 351 10 342 339 33 325 20 353 340 352 7 348 318 294
217 38 307 147 201 191 27 262 191 214 118 114 117 130 149 172 151 168 140 146 129 140 159 97 101 74 94 67 80 73 306 77 9 100 78 42 1 357 333 35 346 20 342 335 342 15 325 301 348
68 19 317 310 182 188 211 341 336 105 127 131 149 151 166 162 169 153 181 156 134 120 155 113 121 116 123 88 62 108 160 159 183 97 99 54 14 2 329 11 22 24 324 316 333 338 337 305 324
102 164 273 279 124 126 85 353 311 115 164 152 161 165 178 168 166 176 178 158 155 147 125 164 129 161 143 108 209 318 93 100 68 117 135 140 126 12 311 340 53 4 306 352 351 347 352 342 329
277 195 99 240 9 157 97 183 271 146 147 178 162 182 183 195 190 176 173 156 143 156 126 159 160 130 156 115 152 338 91 75 263 244 139 141 301 126 321 1 73 326 289 20 8 1 347 327 341
174 39 15 353 159 102 123 150 204 193 126 154 177 181 185 193 202 183 173 160 148 136 136 137 108 143 122 125 54 39 88 204 254 178 254 111 319 123 19 320 71 323 346 25 16 344 321 318 9
55 16 36 311 281 345 56 122 132 127 139 142 118 137 202 191 202 188 186 170 148 135 142 140 137 105 130 127 99 237 195 233 243 190 238 126 294 12 79 307 36 5 33 24 11 321 306 303 57
2 152 226 235 265 329 78 59 348 88 118 138 181 119 95 62 130 183 186 167 140 140 143 155 142 136 165 183 182 211 223 213 206 193 154 141 241 17 300 328 343 27 342 3 37 338 325 319 62
16 325 229 332 342 245 82 108 206 9 5 74 76 106 61 65 57 32 201 163 145 145 142 155 152 155 179 198 239 359 351 350 11 4 128 154 114 276 275 70 313 47 333 48 4 324 314 315 343
45 309 342 348 38 7 22 67 19 16 5 301 153 119 66 67 48 25 8 163 138 144 146 154 160 164 205 238 201 210 274 263 257 212 213 168 196 219 310 325 320 248 295 263 345 339 5 325 318
323 347 30 351 44 123 251 234 52 116 222 273 89 66 52 69 60 36 7 344 134 140 142 149 166 172 199 227 235 282 299 293 59 302 82 21 189 213 275 251 206 10 304 304 301 36 326 307 320
314 353 2 303 88 52 293 124 212 248 220 266 100 82 44 66 71 58 30 66 127 137 146 161 165 174 216 195 263 183 239 344 155 52 159 210 210 201 229 261 134 292 235 279 265 263 257 272 284
346 335 310 31 195 15 269 37 342 246 233 108 96 84 51 68 66 94 74 101 129 143 149 170 167 171 196 198 204 267 289 345 351 31 298 317 176 198 206 126 93 249 255 264 249 246 241 250 263
295 335 339 312 296 58 357 80 68 351 18 7 96 83 66 49 73 63 87 99 125 136 146 176 162 179 188 195 201 206 229 239 261 256 299 341 297 77 105 85 239 261 275 273 264 275 275 279 278
295 114 215 300 319 300 19 87 24 47 113 255 102 93 64 52 63 78 65 137 149 145 160 191 163 187 190 195 210 200 195 220 221 199 22 309 352 15 158 207 235 246 252 261 271 269 291 300 292
310 312 215 302 270 308 109 117 24 55 287 115 90 87 66 67 71 79 90 48 101 148 174 198 172 200 178 188 200 193 190 243 313 15 21 278 192 310 46 275 277 261 256 255 259 273 289 298 291
263 42 20 2 38 297 357 53 14 344 65 32 89 72 59 36 77 60 96 93 143 156 164 192 185 201 189 180 176 172 202 207 221 215 234 253 267 247 266 272 264 257 261 288 331 295 278 275 271
295 87 95 75 260 251 302 119 339 346 335 32 11 66 52 14 41 78 75 89 63 196 168 190 188 188 108 268 165 182 188 189 196 218 247 257 254 253 255 254 265 300 9 53 314 280 274 269 285
335 274 167 275 357 322 312 31 268 96 271 69 24 59 86 34 48 23 105 120 111 287 157 161 153 141 143 235 183 187 161 208 172 249 293 297 279 264 269 271 23 358 27 34 16 1 349 345 356